�N����,����,�~����,�C��,���x,�C��,����,���ϕ���,�ő�u�ԕ���,�ő厞����,���˗�,�I�_���x,�n�����x,�ő啗���N��,DTYPE
"18/08/16","00:10",0.0,25.7,93.2,1004.5,303.6,0.3,0.5,303.9,0.00,24.6,27.7,"00:02:16",1
"18/08/16","00:20",0.0,25.7,93.3,1004.5,314.9,0.6,1.0,325.9,0.00,24.6,27.4,"00:16:32",1
"18/08/16","00:30",0.0,25.8,93.5,1004.5,337.9,0.6,1.3,352.5,0.00,24.7,27.4,"00:26:48",1
"18/08/16","00:40",0.0,25.8,93.5,1004.5,330.7,1.1,1.4,338.4,0.00,24.7,27.4,"00:37:28",1
"18/08/16","00:50",0.0,25.7,93.5,1004.5,329.0,0.8,1.1,332.0,0.00,24.6,27.3,"00:40:16",1
"18/08/16","01:00",0.0,25.7,93.8,1004.3,317.5,0.6,1.1,328.6,0.00,24.7,27.4,"00:50:56",1
"18/08/16","01:10",0.0,25.7,93.6,1004.1,281.0,0.6,0.9,339.2,0.00,24.6,27.4,"01:06:16",1
"18/08/16","01:20",0.0,25.8,93.7,1003.6,331.8,0.7,1.1,338.5,0.00,24.7,27.2,"01:15:12",1
"18/08/16","01:30",0.0,25.8,93.6,1003.6,340.8,1.1,1.7,347.4,0.00,24.7,27.3,"01:29:44",1
"18/08/16","01:40",0.0,25.7,93.6,1003.6,324.9,1.0,1.6,341.1,0.00,24.6,27.3,"01:30:56",1
"18/08/16","01:50",0.0,25.7,93.6,1003.8,318.7,0.7,1.7,341.9,0.00,24.6,27.2,"01:44:00",1
"18/08/16","02:00",0.0,25.6,93.6,1003.8,304.8,0.5,1.0,335.5,0.00,24.5,27.3,"01:50:48",1
"18/08/16","02:10",0.0,25.5,93.8,1003.6,286.4,0.5,0.6,316.3,0.00,24.5,27.2,"02:01:12",1
"18/08/16","02:20",0.0,25.5,93.9,1003.4,308.4,0.6,1.0,318.3,0.00,24.5,27.2,"02:13:04",1
"18/08/16","02:30",0.0,25.4,93.9,1003.4,318.9,0.6,1.1,338.6,0.00,24.4,27.3,"02:26:00",1
"18/08/16","02:40",0.0,25.3,93.9,1003.4,325.7,0.8,1.2,335.3,0.00,24.3,27.2,"02:35:12",1
"18/08/16","02:50",0.0,25.3,94.1,1002.9,291.2,0.5,1.0,330.9,0.00,24.3,27.2,"02:40:02",1
"18/08/16","03:00",0.0,25.3,94.2,1002.9,316.4,0.6,1.1,320.3,0.00,24.3,26.9,"02:51:12",1
"18/08/16","03:10",0.0,25.2,94.2,1002.9,335.1,0.3,1.2,319.1,0.00,24.2,26.7,"03:09:52",1
"18/08/16","03:20",0.0,25.2,94.2,1003.1,337.4,1.0,1.3,337.9,0.00,24.2,26.9,"03:18:16",1
"18/08/16","03:30",0.0,25.1,94.3,1003.1,322.7,0.6,1.1,340.7,0.00,24.2,26.8,"03:20:16",1
"18/08/16","03:40",0.0,25.1,94.5,1003.1,294.5,0.5,0.6,271.3,0.00,24.2,27.0,"03:34:40",1
"18/08/16","03:50",0.0,25.1,94.5,1002.6,301.6,0.6,1.0,324.0,0.00,24.2,26.9,"03:45:12",1
"18/08/16","04:00",0.0,25.1,94.5,1003.1,287.1,0.6,1.0,324.4,0.00,24.2,26.9,"03:59:28",1
"18/08/16","04:10",0.0,25.1,94.5,1002.9,306.8,0.7,1.3,321.3,0.00,24.2,26.8,"04:01:12",1
"18/08/16","04:20",0.0,25.0,94.4,1002.9,319.1,0.5,1.0,337.1,0.00,24.1,26.8,"04:10:02",1
"18/08/16","04:30",0.0,25.1,94.4,1002.9,346.9,0.8,1.3,347.0,0.00,24.2,26.9,"04:26:32",1
"18/08/16","04:40",0.0,25.1,94.6,1002.9,338.9,0.7,1.3,337.7,0.00,24.2,26.8,"04:32:40",1
"18/08/16","04:50",0.0,25.0,94.7,1002.9,325.9,0.7,1.1,340.4,0.00,24.1,26.7,"04:40:08",1
"18/08/16","05:00",0.0,25.0,94.8,1002.6,309.2,0.3,0.9,339.7,0.00,24.1,26.6,"04:50:16",1
"18/08/16","05:10",0.0,25.0,94.6,1002.9,295.2,0.6,0.9,339.2,0.00,24.1,26.9,"05:01:04",1
"18/08/16","05:20",0.0,24.9,94.9,1002.6,311.5,0.5,0.8,326.3,0.00,24.1,26.5,"05:12:40",1
"18/08/16","05:30",0.0,25.1,94.9,1002.9,322.3,0.6,0.9,311.6,0.00,24.3,26.7,"05:21:28",1
"18/08/16","05:40",0.0,25.2,94.9,1002.9,334.4,0.7,1.2,343.5,0.00,24.4,26.7,"05:36:00",1
"18/08/16","05:50",0.0,25.3,94.9,1002.6,331.8,0.6,1.0,331.3,0.00,24.5,26.8,"05:40:16",1
"18/08/16","06:00",0.0,25.3,94.9,1002.9,340.0,1.1,1.8,337.7,0.00,24.5,26.6,"05:56:08",1
"18/08/16","06:10",0.0,25.4,94.9,1002.6,324.2,0.7,1.4,339.0,0.00,24.6,26.6,"06:05:28",1
"18/08/16","06:20",0.0,25.5,94.9,1002.9,290.2,0.2,0.5,287.3,0.00,24.7,26.7,"06:14:00",1
"18/08/16","06:30",0.0,25.5,94.9,1002.4,312.4,0.5,0.8,340.9,0.00,24.7,26.6,"06:29:20",1
"18/08/16","06:40",0.0,25.6,94.7,1002.4,343.4,0.6,1.0,354.2,0.01,24.7,26.7,"06:38:48",1
"18/08/16","06:50",0.2,25.7,94.7,1002.6,330.8,0.3,1.0,335.4,0.00,24.8,26.6,"06:44:16",1
"18/08/16","07:00",0.0,25.8,94.7,1002.6,279.1,0.2,0.9,238.6,0.00,24.9,26.6,"06:57:36",1
"18/08/16","07:10",0.4,25.8,94.6,1002.4,161.3,0.5,1.3,136.8,0.01,24.9,26.7,"07:03:20",1
"18/08/16","07:20",0.0,25.9,94.5,1002.6,150.0,0.2,0.9,193.3,0.02,25.0,26.8,"07:14:48",1
"18/08/16","07:30",0.0,26.1,94.5,1002.6,18.5,0.8,2.0,357.7,0.04,25.2,26.9,"07:24:40",1
"18/08/16","07:40",0.0,26.1,94.0,1002.9,108.4,0.8,2.2,182.3,0.03,25.1,26.9,"07:38:40",1
"18/08/16","07:50",0.2,25.8,94.1,1002.9,195.5,1.7,4.1,208.3,0.03,24.8,26.7,"07:44:56",1
"18/08/16","08:00",0.0,25.9,94.0,1003.1,155.9,0.8,2.0,192.9,0.07,24.9,26.8,"07:51:28",1
"18/08/16","08:10",0.0,25.9,93.4,1003.1,182.4,0.7,1.9,135.9,0.08,24.8,26.9,"08:06:16",1
"18/08/16","08:20",0.0,26.3,92.9,1003.4,146.3,1.0,2.5,119.6,0.09,25.1,27.0,"08:12:40",1
"18/08/16","08:30",0.0,26.4,92.4,1003.1,120.6,0.7,1.4,97.2,0.08,25.1,27.1,"08:24:24",1
"18/08/16","08:40",0.0,26.6,92.1,1003.4,89.5,0.2,0.9,110.2,0.10,25.3,27.2,"08:37:12",1
"18/08/16","08:50",0.0,26.8,90.7,1002.9,112.2,0.6,1.3,131.7,0.10,25.2,27.1,"08:48:48",1
"18/08/16","09:00",0.0,27.3,91.0,1002.9,171.3,1.0,1.7,189.0,0.17,25.7,27.3,"08:52:56",1
"18/08/16","09:10",0.0,27.7,88.9,1002.6,175.7,1.3,2.5,125.4,0.24,25.7,27.3,"09:05:44",1
"18/08/16","09:20",0.0,27.8,88.3,1002.9,165.6,1.2,2.1,223.4,0.16,25.7,27.4,"09:18:08",1
"18/08/16","09:30",0.0,27.7,87.4,1002.9,170.5,1.5,2.6,210.5,0.09,25.5,27.6,"09:20:02",1
"18/08/16","09:40",0.2,27.7,88.0,1003.1,201.1,0.8,2.4,218.0,0.08,25.6,27.7,"09:30:08",1
"18/08/16","09:50",0.0,28.1,89.1,1002.9,270.9,0.6,1.7,342.6,0.11,26.2,27.9,"09:45:12",1
"18/08/16","10:00",0.0,28.5,84.8,1002.2,254.9,0.7,1.6,221.1,0.18,25.7,27.7,"09:52:32",1
"18/08/16","10:10",0.0,28.7,82.6,1002.6,240.9,1.1,3.3,222.7,0.17,25.5,27.9,"10:03:52",1
"18/08/16","10:20",0.2,28.4,82.9,1002.6,241.3,1.2,2.9,218.9,0.13,25.3,27.9,"10:12:32",1
"18/08/16","10:30",0.0,28.7,83.7,1002.2,248.3,0.6,2.2,218.0,0.15,25.7,27.9,"10:22:24",1
"18/08/16","10:40",0.0,28.7,82.9,1001.9,250.0,0.8,1.9,233.2,0.15,25.5,27.8,"10:36:24",1
"18/08/16","10:50",0.0,28.9,81.7,1001.7,235.6,1.5,4.2,219.0,0.15,25.5,28.1,"10:43:04",1
"18/08/16","11:00",0.0,28.8,80.5,1001.9,238.8,1.5,3.4,209.1,0.13,25.1,28.2,"10:56:56",1
"18/08/16","11:10",0.0,28.9,80.3,1002.2,225.4,1.6,2.8,192.8,0.08,25.2,28.1,"11:03:44",1
"18/08/16","11:20",0.0,29.0,80.5,1001.9,258.3,1.2,3.1,236.0,0.09,25.3,28.2,"11:18:32",1
"18/08/16","11:30",0.0,28.7,80.7,1001.7,248.5,1.1,2.8,215.1,0.11,25.1,28.4,"11:21:36",1
"18/08/16","11:40",0.0,28.9,80.4,1001.5,237.5,0.8,2.2,222.3,0.12,25.2,28.3,"11:32:40",1
"18/08/16","11:50",0.0,29.2,80.5,1001.9,220.4,1.1,2.6,220.3,0.17,25.5,28.2,"11:43:04",1
"18/08/16","12:00",0.0,29.2,79.0,1001.9,238.0,1.3,3.1,234.5,0.21,25.2,28.0,"11:53:04",1
"18/08/16","12:10",0.0,29.6,77.7,1002.2,275.1,1.3,3.9,346.1,0.32,25.3,28.5,"12:01:36",1
"18/08/16","12:20",0.0,29.6,78.2,1002.4,239.7,1.5,4.5,214.2,0.22,25.4,28.4,"12:17:04",1
"18/08/16","12:30",0.0,29.4,76.2,1001.9,229.6,1.6,5.5,204.0,0.11,24.8,28.7,"12:28:56",1
"18/08/16","12:40",0.0,28.4,78.8,1001.9,246.0,1.7,4.1,228.8,0.12,24.4,28.5,"12:33:12",1
"18/08/16","12:50",0.0,29.1,77.7,1001.7,249.1,1.6,5.2,235.9,0.29,24.8,28.6,"12:42:24",1
"18/08/16","13:00",0.0,29.5,77.5,1001.5,234.1,2.1,4.9,191.5,0.32,25.2,28.7,"12:51:20",1
"18/08/16","13:10",0.0,29.6,77.9,1001.7,218.5,1.5,3.3,213.8,0.30,25.4,28.8,"13:02:40",1
"18/08/16","13:20",0.0,29.9,76.3,1001.5,234.3,1.6,4.5,227.3,0.29,25.3,28.8,"13:16:48",1
"18/08/16","13:30",0.0,30.1,74.9,1001.5,239.4,1.7,4.2,257.5,0.29,25.2,29.0,"13:24:00",1
"18/08/16","13:40",0.0,29.8,75.9,1001.2,260.8,2.0,5.1,229.7,0.25,25.1,29.0,"13:34:32",1
"18/08/16","13:50",0.0,30.0,75.1,1000.8,235.9,2.1,5.4,206.1,0.24,25.1,29.2,"13:49:28",1
"18/08/16","14:00",0.0,30.9,73.2,1001.2,245.0,1.5,3.6,228.7,0.39,25.6,29.4,"13:59:36",1
"18/08/16","14:10",0.0,30.5,73.7,1001.7,224.0,2.1,5.4,231.4,0.38,25.3,29.5,"14:06:08",1
"18/08/16","14:20",0.0,31.0,71.1,1001.7,209.9,2.3,4.9,224.9,0.53,25.2,29.7,"14:19:36",1
"18/08/16","14:30",0.0,30.4,72.4,1001.9,190.2,2.1,6.7,224.4,0.26,24.9,29.7,"14:28:24",1
"18/08/16","14:40",0.0,30.3,72.9,1001.5,264.0,1.1,2.9,223.0,0.18,24.9,29.8,"14:30:32",1
"18/08/16","14:50",0.0,29.9,73.1,1001.5,248.0,1.5,4.5,227.6,0.13,24.6,29.8,"14:47:12",1
"18/08/16","15:00",0.0,29.8,74.2,1001.2,237.7,1.3,4.0,216.9,0.10,24.7,29.6,"14:55:28",1
"18/08/16","15:10",0.0,29.5,76.0,1000.8,208.6,1.1,2.5,212.9,0.07,24.9,29.7,"15:00:32",1
"18/08/16","15:20",0.0,29.1,77.0,1000.0,287.0,1.3,4.0,227.7,0.07,24.7,29.7,"15:19:20",1
"18/08/16","15:30",0.0,29.2,77.5,999.8,240.7,1.1,3.3,220.0,0.08,24.9,29.6,"15:27:12",1
"18/08/16","15:40",0.0,29.4,77.1,999.3,228.4,0.7,2.5,227.6,0.09,25.0,29.6,"15:30:32",1
"18/08/16","15:50",0.0,29.4,76.2,999.3,148.6,0.6,1.8,230.5,0.07,24.8,29.5,"15:44:08",1
"18/08/16","16:00",0.0,28.9,77.3,998.9,326.5,1.0,2.8,274.8,0.01,24.6,29.2,"15:50:02",1
"18/08/16","16:10",0.2,28.4,80.8,998.6,218.3,2.0,3.4,219.3,0.05,24.8,29.4,"16:08:48",1
"18/08/16","16:20",0.0,28.4,80.4,999.1,235.9,2.1,5.2,171.7,0.05,24.7,29.2,"16:15:12",1
"18/08/16","16:30",0.0,28.4,80.3,999.8,252.8,1.6,3.9,234.5,0.04,24.7,29.2,"16:23:12",1
"18/08/16","16:40",0.0,28.4,79.4,999.6,238.3,1.3,4.0,224.6,0.04,24.5,29.1,"16:34:56",1
"18/08/16","16:50",0.0,28.4,78.7,999.6,267.7,1.1,2.6,227.9,0.01,24.4,29.0,"16:45:44",1
"18/08/16","17:00",0.0,28.5,78.5,999.3,261.3,1.5,3.4,220.9,0.03,24.4,28.9,"16:56:16",1
"18/08/16","17:10",0.0,28.6,77.8,999.1,235.4,1.3,3.6,222.8,0.06,24.4,28.7,"17:04:40",1
"18/08/16","17:20",0.0,28.6,77.2,999.3,244.1,1.3,3.4,226.2,0.04,24.3,28.7,"17:13:20",1
"18/08/16","17:30",0.0,28.6,76.9,999.8,268.9,1.1,2.4,259.7,0.02,24.2,28.7,"17:24:16",1
"18/08/16","17:40",0.0,28.5,77.1,999.8,280.3,1.3,3.7,233.5,0.01,24.1,28.7,"17:33:20",1
"18/08/16","17:50",0.0,28.4,77.4,1000.0,270.6,1.3,2.9,223.5,0.01,24.1,28.6,"17:43:22",1
"18/08/16","18:00",0.0,28.3,77.6,999.8,267.9,1.2,3.9,231.9,0.00,24.0,28.7,"17:52:48",1
"18/08/16","18:10",0.0,28.4,77.8,1000.0,313.5,0.7,2.2,331.8,0.01,24.2,28.4,"18:07:34",1
"18/08/16","18:20",0.0,28.3,77.8,1000.0,291.7,0.8,2.0,321.6,0.00,24.1,28.6,"18:13:04",1
"18/08/16","18:30",1.2,27.4,79.5,1001.0,332.3,2.2,5.9,345.1,0.00,23.6,28.4,"18:25:04",1
"18/08/16","18:40",0.2,26.8,82.7,1000.8,281.5,0.8,2.4,310.1,0.00,23.6,28.1,"18:30:24",1
"18/08/16","18:50",0.0,26.3,84.2,1000.8,280.9,0.8,2.9,343.9,0.00,23.5,28.2,"18:43:20",1
"18/08/16","19:00",0.0,26.2,84.7,1001.0,260.5,0.7,1.8,221.5,0.00,23.5,28.1,"18:56:16",1
"18/08/16","19:10",0.0,25.9,85.8,1001.5,274.5,0.6,1.4,341.9,0.00,23.4,28.1,"19:02:40",1
"18/08/16","19:20",0.0,25.7,86.5,1001.5,310.5,0.5,1.3,9.0,0.00,23.3,28.0,"19:15:52",1
"18/08/16","19:30",0.0,25.8,86.8,1001.9,328.2,0.7,1.7,333.7,0.00,23.5,27.8,"19:29:28",1
"18/08/16","19:40",0.0,25.4,88.3,1002.2,313.3,0.7,2.2,324.9,0.00,23.4,27.7,"19:30:16",1
"18/08/16","19:50",0.0,25.1,88.8,1002.2,313.3,1.0,2.1,340.2,0.00,23.2,27.8,"19:48:56",1
"18/08/16","20:00",0.0,25.1,88.9,1002.4,313.2,0.8,2.4,336.3,0.00,23.2,27.6,"19:56:08",1
"18/08/16","20:10",0.0,25.0,88.9,1002.4,310.0,0.7,2.0,340.1,0.00,23.1,27.6,"20:03:44",1
"18/08/16","20:20",0.0,25.0,89.1,1002.4,329.9,1.2,2.0,341.9,0.00,23.1,27.6,"20:11:36",1
"18/08/16","20:30",0.0,24.7,89.3,1002.9,320.2,1.5,2.7,338.1,0.00,22.9,27.4,"20:28:56",1
"18/08/16","20:40",0.0,24.8,88.4,1002.9,303.0,1.3,3.7,339.0,0.00,22.8,27.3,"20:31:36",1
"18/08/16","20:50",0.0,24.9,88.3,1003.4,309.8,0.8,1.9,347.3,0.00,22.9,27.3,"20:46:56",1
"18/08/16","21:00",0.0,24.9,88.4,1002.9,353.1,1.0,1.8,345.4,0.00,22.9,27.1,"20:56:56",1
"18/08/16","21:10",0.0,24.7,89.1,1003.4,336.6,1.6,2.9,351.7,0.00,22.8,27.2,"21:07:52",1
"18/08/16","21:20",0.0,24.4,89.3,1003.4,333.7,1.8,3.2,354.0,0.00,22.6,27.1,"21:14:48",1
"18/08/16","21:30",0.0,24.6,88.7,1003.8,328.1,1.8,3.1,333.0,0.00,22.6,27.0,"21:20:48",1
"18/08/16","21:40",0.0,24.5,88.4,1003.8,324.8,1.2,2.9,334.9,0.00,22.5,27.0,"21:38:32",1
"18/08/16","21:50",0.0,24.5,88.0,1003.8,338.5,1.6,3.1,337.7,0.00,22.4,26.9,"21:49:36",1
"18/08/16","22:00",0.0,24.5,88.0,1003.8,338.8,1.3,2.2,332.1,0.00,22.4,26.9,"21:57:28",1
"18/08/16","22:10",0.0,24.4,88.5,1003.8,338.0,1.0,1.7,335.2,0.00,22.4,27.1,"22:02:48",1
"18/08/16","22:20",0.0,24.2,89.0,1004.1,331.7,1.3,2.7,334.3,0.00,22.3,26.7,"22:17:28",1
"18/08/16","22:30",0.0,24.1,89.6,1003.6,331.4,1.5,2.6,338.6,0.00,22.3,26.7,"22:25:44",1
"18/08/16","22:40",0.0,24.0,89.0,1003.6,339.4,2.0,3.3,348.1,0.00,22.1,26.6,"22:32:24",1
"18/08/16","22:50",0.0,24.1,87.5,1004.1,337.0,2.0,3.4,333.7,0.00,21.9,26.7,"22:49:04",1
"18/08/16","23:00",0.0,24.4,85.4,1003.6,338.0,2.0,2.9,345.2,0.00,21.8,26.5,"22:54:56",1
"18/08/16","23:10",0.0,24.2,84.6,1003.6,323.4,1.5,3.1,331.2,0.00,21.5,26.7,"23:07:20",1
"18/08/16","23:20",0.0,24.4,82.0,1003.8,336.6,2.0,4.3,335.6,0.00,21.2,26.4,"23:14:16",1
"18/08/16","23:30",0.0,24.3,81.3,1004.3,341.1,1.7,3.5,342.8,0.00,20.9,26.5,"23:25:52",1
"18/08/16","23:40",0.0,24.2,81.2,1003.8,331.9,1.5,3.2,329.9,0.00,20.8,26.5,"23:39:36",1
"18/08/16","23:50",0.0,24.2,80.7,1004.3,346.6,2.0,3.9,336.9,0.00,20.7,26.4,"23:46:16",1
"18/08/16","24:00",0.0,23.9,81.8,1004.3,345.0,1.5,3.5,338.7,0.00,20.6,26.2,"23:57:28",1
